Le nostre stazioni meteo in Italia

Pubblicità
Il mio iltempo24.it
S. Maria Di Leuca, Italia (16360): Temperatura & dewpoint: 19.05.2019 08:00:00 - 25.05.2019 08:00:00 (CEST)S. Maria Di Leuca, Italia (16360): velocità del vento: 19.05.2019 08:00:00 - 25.05.2019 08:00:00 (CEST)S. Maria Di Leuca, Italia (16360): direzione del vento: 19.05.2019 08:00:00 - 25.05.2019 08:00:00 (CEST)S. Maria Di Leuca, Italia (16360): reduced air pressure: 19.05.2019 08:00:00 - 25.05.2019 08:00:00 (CEST)S. Maria Di Leuca, Italia (16360): visibility: 19.05.2019 08:00:00 - 25.05.2019 08:00:00 (CEST)S. Maria Di Leuca, Italia (16360): ore di luce: 19.05.2019 08:00:00 - 25.05.2019 08:00:00 (CEST)
Data & Tempo tt [°C] td [°C] ff [km/h] ff [kn] dd ppp [hPa] vv [km] sd [min]
25.05.2019 08:00:00 - - - - - - - -
25.05.2019 07:00:00 17,2 14,7 5 3 ESE 1013,8 10 0
25.05.2019 06:00:00 17,0 14,5 5 3 SE 1013,4 10 -
25.05.2019 05:00:00 17,4 14,9 5 3 E 1013,6 10 -
25.05.2019 04:00:00 17,4 14,9 8 4 NO 1012,9 10 -
25.05.2019 03:00:00 17,4 14,9 8 4 NO 1013,6 10 -
25.05.2019 02:00:00 17,6 16,0 11 6 O 1013,5 10 -
25.05.2019 01:00:00 17,6 16,0 8 4 O 1013,6 10 -
25.05.2019 00:00:00 17,6 16,0 11 6 OSO 1013,6 10 -
24.05.2019 23:00:00 17,6 16,0 9 5 OSO 1013,6 10 -
24.05.2019 22:00:00 17,8 16,1 9 5 OSO 1012,8 10 -
24.05.2019 21:00:00 17,8 16,1 8 4 OSO 1012,6 10 -
24.05.2019 20:00:00 18,0 16,2 0 0 N 1012,5 10 0
24.05.2019 19:00:00 18,6 16,8 8 4 SSO 1012,4 20 54
24.05.2019 18:00:00 18,6 16,9 8 4 S 1012,1 20 60
24.05.2019 17:00:00 19,4 17,2 9 5 SSE 1012,6 20 60
24.05.2019 16:00:00 19,0 17,1 9 5 S 1012,7 20 60
24.05.2019 15:00:00 19,6 17,0 9 5 SO 1013,0 20 60
24.05.2019 14:00:00 18,2 16,5 13 7 S 1013,0 20 60
24.05.2019 13:00:00 19,8 17,0 11 6 SO 1013,2 20 60
24.05.2019 12:00:00 20,0 18,0 9 5 S 1013,2 20 60
24.05.2019 11:00:00 20,2 17,8 11 6 ONO 1013,1 20 60
24.05.2019 10:00:00 19,8 15,0 15 8 NO 1013,1 20 60
24.05.2019 09:00:00 18,4 15,3 13 7 NO 1013,2 20 60
24.05.2019 08:00:00 17,4 14,9 11 6 NO 1013,1 20 60
24.05.2019 07:00:00 16,8 14,3 9 5 NNO 1012,7 10 48
24.05.2019 06:00:00 16,0 13,5 15 8 NO 1012,4 10 0
24.05.2019 05:00:00 16,0 13,5 13 7 NO 1012,4 10 -
24.05.2019 04:00:00 16,0 13,5 13 7 NNO 1012,4 10 -
24.05.2019 03:00:00 16,0 14,0 13 7 NO 1012,4 10 -
24.05.2019 02:00:00 16,2 12,7 11 6 ONO 1012,7 10 -
24.05.2019 01:00:00 16,4 13,9 9 5 NNO 1012,8 10 -
24.05.2019 00:00:00 16,4 14,2 15 8 N 1012,8 10 -
23.05.2019 23:00:00 16,8 14,8 18 10 NNE 1013,0 10 -
23.05.2019 22:00:00 17,0 13,5 16 9 NNO 1013,2 10 -
23.05.2019 21:00:00 17,2 14,7 21 11 NNO 1013,2 10 -
23.05.2019 20:00:00 17,2 14,7 9 5 O 1013,4 10 0
23.05.2019 19:00:00 17,4 15,0 5 3 O 1013,6 10 0
23.05.2019 18:00:00 17,4 15,0 5 3 SO 1013,4 10 0
23.05.2019 17:00:00 17,4 15,0 4 2 SSO 1014,0 10 0
23.05.2019 16:00:00 17,4 15,0 4 2 SSO 1013,8 10 0
23.05.2019 15:00:00 17,4 15,0 5 3 OSO 1014,0 10 0
23.05.2019 14:00:00 17,4 15,2 13 7 O 1014,2 10 0
23.05.2019 13:00:00 18,2 15,8 9 5 SO 1014,6 10 18
23.05.2019 12:00:00 18,0 16,2 8 4 SSO 1014,6 10 12
23.05.2019 11:00:00 18,0 16,2 13 7 O 1014,6 10 12
23.05.2019 10:00:00 17,2 14,8 9 5 OSO 1013,8 10 60
23.05.2019 09:00:00 16,6 13,1 8 4 SO 1013,7 10 60
23.05.2019 08:00:00 15,8 13,3 0 0 N 1013,5 10 60
23.05.2019 07:00:00 15,6 13,4 9 5 N 1013,4 10 24
23.05.2019 06:00:00 15,8 13,3 9 5 NO 1013,5 10 0
23.05.2019 05:00:00 15,8 13,5 4 2 O 1013,4 10 -
23.05.2019 04:00:00 15,8 13,5 4 2 NNE 1013,4 10 -
23.05.2019 03:00:00 16,0 13,3 9 5 NO 1014,2 10 -
23.05.2019 02:00:00 16,8 14,3 8 4 O 1014,3 10 -
23.05.2019 01:00:00 16,8 14,3 8 4 NO 1014,6 12 -
23.05.2019 00:00:00 16,8 14,3 5 3 ONO 1014,8 10 -
22.05.2019 23:00:00 16,8 14,3 9 5 O 1014,6 12 -
22.05.2019 22:00:00 17,0 14,5 9 5 O 1014,4 12 -
22.05.2019 21:00:00 17,4 14,9 11 6 O 1014,3 10 0
22.05.2019 20:00:00 17,6 15,8 9 5 SO 1014,3 15 12
22.05.2019 19:00:00 18,0 16,3 9 5 SSO 1014,4 10 60
22.05.2019 18:00:00 18,2 15,6 8 4 OSO 1014,5 10 60
22.05.2019 17:00:00 18,6 13,0 9 5 SSO 1014,8 10 60
22.05.2019 16:00:00 19,0 10,3 11 6 SSO 1015,3 10 60
22.05.2019 15:00:00 18,8 7,6 9 5 SO 1015,3 10 60
22.05.2019 14:00:00 18,8 13,7 9 5 OSO 1015,5 10 60
22.05.2019 13:00:00 18,8 12,1 9 5 OSO 1016,0 10 60
22.05.2019 12:00:00 18,0 13,1 13 7 OSO 1016,0 10 60
22.05.2019 11:00:00 17,8 13,1 13 7 OSO 1016,1 10 60
22.05.2019 10:00:00 17,4 14,3 8 4 OSO 1016,1 10 60
22.05.2019 09:00:00 17,2 15,0 11 6 O 1016,0 10 60
22.05.2019 08:00:00 17,0 14,5 9 5 OSO 1016,0 10 60
22.05.2019 07:00:00 16,0 13,5 8 4 ONO 1015,5 10 6
22.05.2019 06:00:00 16,8 14,3 8 4 NO 1015,3 10 -
22.05.2019 05:00:00 17,0 14,8 8 4 NNO 1015,1 10 -
22.05.2019 04:00:00 17,0 14,7 8 4 NNO 1015,3 10 -
22.05.2019 03:00:00 - - - - - - - -
22.05.2019 02:00:00 16,8 14,1 11 6 O 1015,5 10 -
22.05.2019 01:00:00 17,0 14,3 8 4 O 1015,7 10 -
22.05.2019 00:00:00 17,0 14,3 9 5 O 1015,9 10 -
21.05.2019 23:00:00 17,2 14,5 11 6 OSO 1015,7 10 -
21.05.2019 22:00:00 17,4 14,9 8 4 OSO 1015,5 10 -
21.05.2019 21:00:00 17,8 16,0 8 4 OSO 1015,2 10 -
21.05.2019 20:00:00 17,8 16,1 5 3 OSO 1015,2 15 30
21.05.2019 19:00:00 18,2 15,6 8 4 OSO 1014,8 10 60
21.05.2019 18:00:00 18,4 15,8 9 5 SO 1014,9 20 60
21.05.2019 17:00:00 19,0 17,0 11 6 SO 1014,8 20 60
21.05.2019 16:00:00 19,2 17,0 13 7 SSO 1014,9 20 60
21.05.2019 15:00:00 19,6 17,2 15 8 SSO 1014,9 20 60
21.05.2019 14:00:00 19,8 14,8 9 5 SSO 1014,9 20 60
21.05.2019 13:00:00 19,4 15,3 11 6 SO 1014,9 20 60
21.05.2019 12:00:00 18,8 16,6 11 6 SSO 1014,9 20 60
21.05.2019 11:00:00 18,8 16,4 8 4 SO 1014,1 20 60
21.05.2019 10:00:00 17,8 15,1 9 5 S 1014,0 20 60
21.05.2019 09:00:00 17,4 14,5 11 6 SSE 1013,9 20 60
21.05.2019 08:00:00 17,4 14,3 5 3 SE 1013,9 20 60
21.05.2019 07:00:00 15,8 13,3 5 3 NNE 1013,0 10 6
21.05.2019 06:00:00 16,2 13,7 4 2 NNE 1013,0 10 -
21.05.2019 05:00:00 16,4 13,3 0 0 N 1013,2 10 -
21.05.2019 04:00:00 16,4 13,3 0 0 N 1013,2 10 -
21.05.2019 03:00:00 16,4 13,3 0 0 N 1013,6 10 -
21.05.2019 02:00:00 16,4 13,3 0 0 N 1013,6 10 -
21.05.2019 01:00:00 16,6 13,5 8 4 O 1014,0 10 -
21.05.2019 00:00:00 16,6 13,5 5 3 SSO 1013,8 10 -
20.05.2019 23:00:00 16,6 14,1 9 5 SSO 1013,6 10 -
20.05.2019 22:00:00 17,0 14,5 13 7 SSO 1013,2 10 -
20.05.2019 21:00:00 17,0 14,5 8 4 S 1012,9 10 -
20.05.2019 20:00:00 17,4 15,0 5 3 S 1012,9 10 0
20.05.2019 19:00:00 17,8 16,0 9 5 S 1013,2 20 60
20.05.2019 18:00:00 17,8 16,1 15 8 S 1013,3 20 60
20.05.2019 17:00:00 17,8 16,3 15 8 ESE 1013,3 20 60
20.05.2019 16:00:00 18,0 16,5 13 7 SSO 1013,2 20 60
20.05.2019 15:00:00 18,2 16,0 13 7 S 1013,2 20 60
20.05.2019 14:00:00 18,2 15,1 13 7 N 1013,2 10 60
20.05.2019 13:00:00 18,0 16,3 13 7 SE 1013,2 15 60
20.05.2019 12:00:00 18,0 16,3 11 6 SSE 1013,2 10 60
20.05.2019 11:00:00 16,8 14,3 8 4 S 1012,4 10 60
20.05.2019 10:00:00 16,2 14,4 5 3 S 1012,3 10 18
20.05.2019 09:00:00 16,0 14,0 8 4 OSO 1011,4 15 0
20.05.2019 08:00:00 15,8 13,7 5 3 O 1010,3 10 0
20.05.2019 07:00:00 15,4 13,1 15 8 ONO 1009,6 10 0
20.05.2019 06:00:00 15,4 13,1 15 8 ONO 1009,1 10 0
20.05.2019 05:00:00 15,4 13,3 16 9 ONO 1009,1 10 -
20.05.2019 04:00:00 15,6 13,4 13 7 ONO 1009,1 10 -
20.05.2019 03:00:00 15,4 13,1 13 7 ONO 1009,2 10 -
20.05.2019 02:00:00 15,8 13,3 11 6 O 1009,2 10 -
20.05.2019 01:00:00 16,2 13,3 13 7 O 1009,2 10 -
20.05.2019 00:00:00 15,8 12,9 5 3 O 1009,2 10 -
19.05.2019 23:00:00 16,2 13,3 8 4 SSO 1009,0 10 -
19.05.2019 22:00:00 16,2 13,3 4 2 SSE 1008,7 10 -
19.05.2019 21:00:00 16,6 13,7 4 2 S 1007,9 10 0
19.05.2019 20:00:00 17,0 14,1 5 3 SO 1007,2 10 0
19.05.2019 19:00:00 17,0 14,5 8 4 SSO 1006,7 10 42
19.05.2019 18:00:00 17,0 14,3 11 6 S 1006,2 10 60
19.05.2019 17:00:00 17,8 14,9 8 4 S 1006,0 10 60
19.05.2019 16:00:00 18,0 15,1 9 5 SSO 1005,8 10 60
19.05.2019 15:00:00 18,0 15,1 9 5 SSO 1005,2 10 36
19.05.2019 14:00:00 18,0 15,1 8 4 OSO 1005,2 10 30
19.05.2019 13:00:00 17,0 13,9 11 6 OSO 1004,9 10 0
19.05.2019 12:00:00 16,8 13,7 18 10 SSO 1004,6 10 0
19.05.2019 11:00:00 16,8 13,7 16 9 SSO 1004,6 10 0
19.05.2019 10:00:00 16,8 13,7 15 8 S 1004,6 10 0
19.05.2019 09:00:00 16,0 13,5 15 8 OSO 1005,5 10 0
19.05.2019 08:00:00 16,0 12,9 13 7 SO 1005,5 10 0

tt = Temperatura
td = dewpoint
ff = velocità del vento
dd = direzione del vento
ppp = reduced air pressure
vv = visibility
sd = ore di luce

Stazioni seguenti

WeatherPro
AMSI
MeteoEarth